SCP
0 0 0 0 0 0 0 0 0 0 0 0 0 0 0 0 0 0 0 0 0 0 0 0 0 0 0 0 0 0 0 0 0 0 0 0 0 0
0 0 0 0 0 0 0 0 0 0 0 0 0 0 0 0 0 0 0 0 0 0 0 0 0 0 0 0 0 0 0 0 0 0 0 0 0 0
0 0 0 0 0 0 0 0 0 0 0 0 0 0 0 0 0 0 0 0 0 0 0 0 0 0 0 0 0 0 0 0 0 0 0 0 0 0
1 1 1 0 0 0 0 0 0 0 0 0 0 0 0 0 0 0 0 0 0 0 0 0 0 0 0 0 0 0 0 0 0 0 0 0 0 0
1 1 1 1 0 0 0 0 0 0 0 0 0 0 0 0 0 0 0 0 0 0 0 0 0 0 0 0 0 0 0 0 0 0 0 0 0 0
1 1 1 1 1 1 1 1 0 0 0 0 0 0 0 0 0 0 0 0 0 0 0 0 0 0 0 0 0 0 0 0 0 0 0 0 0 0
1 1 1 1 1 1 1 1 1 1 0 0 0 0 0 0 0 0 0 0 0 0 0 0 0 0 0 0 0 0 0 0 0 0 0 0 0 0
1 1 1 1 1 0 0 0 0 0 0 0 0 0 0 0 0 0 0 0 0 0 0 0 0 0 0 0 0 0 0 0 0 0 0 0 0 0
0 0 0 0 0 0 0 0 0 0 0 0 0 0 0 0 0 0 0 0 0 0 0 0 0 0 0 0 0 0 0 0 0 0 0 0 0 0
0 0 0 0 0 0 0 0 0 0 0 0 0 0 0 0 0 0 0 0 0 0 0 0 0 0 0 0 0 0 0 0 0 0 0 0 0 0
0 0 0 0 0 0 0 0 0 0 0 0 0 0 0 0 0 0 0 0 0 0 0 0 0 0 0 0 0 0 0 0 0 0 0 0 0 0
0 0 0 0 0 0 0 0 0 0 0 0 0 0 0 0 0 0 0 0 0 0 0 0 0 0 0 0 0 0 0 0 0 0 0 0 0 0
0 0 0 0 0 0 0 0 0 0 0 0 0 0 0 0 0 0 0 0 0 0 0 0 0 0 0 0 0 0 0 0 0 0 0 0 0 0
0 0 0 0 0 0 0 0 0 0 0 0 0 0 0 0 0 0 0 0 0 0 0 0 0 0 0 0 0 0 0 0 0 0 0 0 0 0
0 0 0 0 0 0 0 0 0 0 0 0 0 0 0 0 0 0 0 0 0 0 0 0 0 0 0 0 0 0 0 0 0 0 0 0 0 0
0 0 0 0 0 0 0 0 0 0 0 0 0 0 0 0 0 0 0 0 0 0 0 0 0 0 0 0 0 0 0 0 0 0 0 0 0 0
0 0 0 0 0 0 0 0 0 0 0 0 0 0 0 0 0 0 0 0 0 0 0 0 0 0 0 0 0 0 0 0 0 0 0 0 0 0
0 0 0 0 0 0 0 0 0 0 0 0 0 0 0 0 0 0 0 0 0 0 0 0 0 0 0 0 0 0 0 0 0 0 0 0 0 0
0 0 0 0 0 0 0 0 0 0 0 0 0 0 0 0 0 0 0 0 0 0 0 0 0 0 0 0 0 0 0 0 0 0 0 0 0 0
0 0 0 0 0 0 0 0 0 0 0 0 0 0 0 0 0 0 0 0 0 0 0 0 0 0 0 0 0 0 0 0 0 0 0 0 0 0
0 0 0 0 0 0 0 0 0 0 0 0 0 0 0 0 0 0 0 0 0 0 0 0 0 0 0 0 0 0 0 0 0 0 0 0 0 0
0 0 0 0 0 0 0 0 0 0 0 0 0 0 0 0 0 0 0 0 0 0 0 0 0 0 0 0 0 0 0 0 0 0 0 0 0 0
0 0 0 0 0 0 0 0 0 0 0 0 0 0 0 0 0 0 0 0 0 0 0 0 0 0 0 0 0 0 0 0 0 0 0 0 0 0
Wind_Speed
4 5 5 4 4 4 4 4 6 7 6 3 2 1 1 1 2 2 3 5 6 6 7 7 8 8 8 9 10 11 11 11 12 12 14 14 15 16
3 4 4 3 3 2 3 3 4 6 6 2 1 1 1 2 3 3 3 6 6 7 7 7 8 8 8 9 9 10 11 12 12 13 13 14 15 16
3 3 4 3 3 3 2 3 3 4 6 4 1 1 1 2 4 3 3 3 3 6 7 7 8 8 8 8 9 9 10 11 12 12 13 13 14 15
4 4 4 3 3 3 3 3 3 3 5 6 3 2 2 2 3 4 3 2 3 6 7 8 7 7 8 8 9 9 9 10 11 11 12 13 15 16
4 4 4 3 4 3 3 3 3 3 3 4 4 2 2 2 3 3 3 3 3 5 7 7 7 7 9 9 9 10 10 11 11 11 12 13 14 15
3 3 3 3 4 4 3 3 2 3 3 3 3 3 2 2 2 3 4 3 4 4 4 5 7 8 9 10 10 10 10 11 11 11 12 13 13 15
1 1 2 2 2 3 2 2 2 2 2 3 3 3 3 2 2 2 4 5 4 2 3 4 4 4 4 7 8 9 10 10 11 11 11 12 13 14
1 1 0 1 0 1 1 1 1 2 3 3 3 4 4 3 3 3 3 4 4 2 4 6 3 5 4 4 8 11 11 11 11 12 12 13 14 15
1 1 0 0 0 0 0 0 0 1 2 3 4 4 3 3 3 3 3 4 5 4 4 6 3 5 4 6 11 11 11 11 12 12 13 14 15 15
0 1 1 0 1 0 0 1 1 1 2 1 2 3 3 2 2 3 4 4 4 3 2 4 4 5 5 5 9 9 10 11 12 13 15 15 16 16
1 1 1 0 1 1 0 1 1 2 3 3 2 3 4 4 3 1 1 2 4 3 1 2 4 5 5 4 5 9 10 12 13 15 15 15 16 15
1 1 1 1 2 1 0 0 1 1 1 2 3 4 3 3 4 1 1 2 3 3 1 2 3 4 5 3 3 4 6 10 13 14 15 15 16 10
0 1 1 2 2 2 1 1 1 1 1 1 1 2 2 2 2 2 2 2 3 4 2 2 3 3 4 6 5 4 4 6 7 8 11 14 16 12
0 1 1 2 2 2 2 2 2 2 1 1 1 1 2 2 3 3 3 3 3 5 4 3 3 3 4 5 6 5 5 5 5 6 6 11 13 15
0 0 1 1 2 2 3 4 2 1 0 1 1 2 2 3 3 2 2 2 3 3 3 3 4 4 4 5 6 6 6 6 5 5 7 7 7 8
1 1 1 2 3 3 3 3 2 1 0 1 1 2 2 2 2 2 2 3 3 4 3 3 3 4 4 6 6 7 6 5 6 7 8 8 7 6
1 1 1 1 2 2 2 1 1 1 1 1 1 2 2 2 2 2 2 2 2 4 4 4 4 4 5 5 5 6 6 6 6 7 8 9 8 7
2 1 0 0 0 1 1 1 1 1 1 1 1 1 2 2 3 2 2 2 3 4 4 4 4 4 3 3 5 5 5 5 6 6 6 8 9 7
2 1 1 0 0 1 1 1 1 1 1 1 1 2 2 2 2 2 2 2 3 4 4 3 3 3 4 6 5 4 5 6 6 7 6 6 9 10
1 0 0 0 0 1 1 1 1 1 1 1 1 2 2 2 2 3 3 3 4 4 4 3 2 2 3 5 6 6 8 7 6 7 8 7 8 11
0 0 1 1 1 1 1 1 1 1 2 2 2 2 2 2 2 3 3 4 3 3 4 5 4 6 4 3 4 6 5 8 10 8 8 8 8 7
1 1 1 1 1 1 1 1 1 2 2 2 2 2 2 2 3 4 3 3 3 4 5 5 5 4 2 3 5 7 7 7 9 13 12 10 7 6
1 1 1 2 1 1 1 2 2 2 2 2 2 3 2 3 3 3 3 4 4 4 4 4 4 3 3 4 5 6 8 9 7 7 7 10 13 15
Wind_Direction
230 230 234 239 237 238 236 234 249 266 265 240 231 262 282 283 312 303 293 309 310 313 310 310 309 308 306 305 306 306 306 307 308 309 309 308 306 304
224 223 231 241 241 240 238 239 236 251 265 252 228 266 291 310 318 303 296 313 312 314 312 314 313 312 311 310 312 311 312 312 312 312 311 309 309 308
216 217 229 231 239 242 236 236 241 243 260 272 259 279 283 306 315 308 298 297 310 311 313 315 312 310 313 313 316 316 315 314 314 315 315 314 312 311
220 218 229 223 234 242 235 240 242 238 247 266 277 283 273 291 305 307 312 318 309 312 316 314 311 313 316 316 318 319 318 317 317 316 316 316 314 313
220 218 226 218 230 237 235 239 247 252 247 256 272 286 285 318 319 311 311 309 316 311 314 316 315 317 317 316 317 317 317 317 316 316 317 316 315 315
231 226 225 218 227 231 231 237 241 247 253 256 266 281 292 311 317 310 313 316 311 311 310 314 314 314 313 312 311 311 312 314 315 317 318 316 317 317
233 237 229 213 228 226 224 227 230 240 251 260 264 277 280 308 302 302 300 312 304 307 319 310 305 302 308 309 309 309 312 315 316 317 318 320 320 318
210 211 184 154 165 180 193 216 230 241 250 253 260 269 281 290 296 302 308 316 305 330 325 305 304 300 303 300 309 314 316 320 320 320 321 323 321 319
193 171 125 56 158 190 168 139 295 303 272 260 264 269 278 291 295 291 288 287 283 306 318 295 300 295 300 304 312 314 318 323 325 326 326 325 323 321
98 127 125 18 19 26 37 61 40 3 331 296 278 290 301 299 276 273 276 287 286 286 295 284 301 297 302 295 304 314 324 327 329 329 327 325 323 320
36 52 76 302 5 12 20 2 15 15 31 33 3 346 340 336 332 332 314 310 299 295 319 289 300 307 298 287 302 317 324 326 324 322 322 323 324 323
25 29 26 11 4 7 296 226 278 312 3 13 8 356 349 340 343 317 268 261 282 284 314 320 303 324 308 295 313 319 318 317 320 320 321 323 325 324
324 342 354 4 5 6 0 329 289 318 350 3 350 348 349 342 335 329 303 261 255 261 280 316 290 297 281 298 305 306 311 315 317 316 317 321 323 322
262 306 326 3 8 16 17 30 39 37 29 356 336 328 333 331 320 313 308 291 269 268 275 277 269 276 284 288 292 304 309 308 311 312 314 315 316 315
273 310 342 18 23 26 43 46 40 48 57 344 322 313 312 306 310 313 315 310 296 287 283 281 277 274 266 266 283 293 306 307 306 311 313 314 312 314
58 49 55 64 52 44 36 31 28 23 2 308 311 311 315 314 318 324 317 333 326 312 312 305 290 275 270 268 269 281 290 292 305 311 311 307 304 300
103 64 34 30 30 24 22 28 26 31 15 335 320 318 320 321 319 328 316 321 302 301 312 321 315 292 264 265 275 274 284 292 297 310 315 310 304 300
108 126 112 64 6 335 333 337 345 346 336 329 312 300 303 307 310 318 317 300 292 293 301 310 325 328 321 287 251 270 284 294 304 309 307 306 306 306
87 116 144 186 283 295 297 306 308 313 315 299 292 291 291 291 294 300 303 300 296 296 296 298 310 324 317 307 298 286 296 302 306 306 303 300 299 304
70 100 256 267 278 282 290 295 301 317 311 289 277 279 280 284 290 292 292 291 292 293 296 295 294 293 276 282 291 295 303 300 302 304 305 304 292 296
332 265 257 260 271 275 281 283 282 287 290 286 278 274 274 272 277 282 287 289 284 282 290 293 298 306 290 280 283 287 291 308 310 303 305 307 308 308
231 245 256 253 251 254 266 271 278 278 282 281 280 282 276 264 268 277 280 283 279 276 279 288 303 311 289 268 284 292 300 309 313 312 306 296 297 299
229 241 248 249 248 246 248 254 258 266 268 268 272 273 270 269 269 270 271 271 277 285 291 296 302 298 281 274 283 292 300 309 314 318 310 311 306 297